Eagle River, WI

12:02 AM CDT on July 30, 2016 (GMT -0500)
Eagle River Union

Weather History for KEGV - January, 2014

Change the Weather History Date:

Sunday, January 12, 2014

  Actual Average Record
Temperature  
Mean Temperature 28 °F -  
Max Temperature 34 °F 21 °F 42 °F (2013)
Min Temperature 22 °F 1 °F -22 °F (1999)
Degree Days  
Heating Degree Days 37    
Moisture  
Dew Point 25 °F    
Average Humidity 87    
Maximum Humidity 99    
Minimum Humidity 71    
Precipitation  
Precipitation 0.04 in - - ()
Sea Level Pressure  
Sea Level Pressure 29.46 in    
Wind  
Wind Speed 5 mph (SW)    
Max Wind Speed 13 mph    
Max Gust Speed 21 mph    
Visibility 9 miles    
Events      
Averages and records for this station are not official NWS values.
T = Trace of Precipitation, MM = Missing Value Source: NWS Daily Summary

Daily Weather History Graph

Daily Weather History Graph

Search for Another Location

Airport or City:

Trip Planner

Search our weather history database for the weather conditions in past years. The results will help you decide how hot, cold, wet, or windy it might be!

Date:

Astronomy

Jan. 12, 2014 Rise Set
Actual Time 7:36 AM CST 4:34 PM CST
Civil Twilight 7:02 AM CST 5:08 PM CST
Nautical Twilight 6:25 AM CST 5:45 PM CST
Astronomical Twilight 5:49 AM CST 6:21 PM CST
Moon 2:03 PM CST (1/12) 4:33 AM CST (1/12)
Length of Visible Light 10h 05m
Length of Day
8h 58m
Waxing Gibbous, 90% of the Moon is Illuminated
Jan 12
Waxing Gibbous
Jan 15
Full
Jan 23
Last Quarter
Jan 30
New
Feb 6
First Quarter

Hourly Weather History & Observations

Time (CST) Temp. Windchill Dew Point Humidity Pressure Visibility Wind Dir Wind Speed Gust Speed Precip Events Conditions
12:15 AM 24.8 °F 15.3 °F 23.7 °F 96% 29.56 in 10.0 mi West 9.2 mph - N/A   Overcast
12:35 AM 24.8 °F 14.6 °F 23.7 °F 96% 29.56 in 10.0 mi WSW 10.4 mph - N/A   Overcast
12:55 AM 24.8 °F 14.0 °F 23.7 °F 96% 29.56 in 10.0 mi West 11.5 mph - N/A   Overcast
1:15 AM 24.8 °F 16.9 °F 23.7 °F 96% 29.55 in 10.0 mi WSW 6.9 mph - N/A   Overcast
1:35 AM 24.6 °F 15.1 °F 23.5 °F 96% 29.57 in 10.0 mi WSW 9.2 mph - N/A   Overcast
1:55 AM 24.6 °F 14.4 °F 23.7 °F 96% 29.57 in 10.0 mi WSW 10.4 mph - N/A   Overcast
2:15 AM 24.8 °F 14.0 °F 23.9 °F 96% 29.58 in 10.0 mi WSW 11.5 mph - N/A   Overcast
2:35 AM 24.8 °F 16.1 °F 23.9 °F 96% 29.57 in 10.0 mi SW 8.1 mph - N/A   Overcast
2:55 AM 24.6 °F 15.1 °F 23.7 °F 96% 29.58 in 10.0 mi WSW 9.2 mph - N/A   Overcast
3:15 AM 24.4 °F 16.5 °F 23.7 °F 97% 29.58 in 7.0 mi WSW 6.9 mph - N/A   Overcast
3:35 AM 24.3 °F 18.4 °F 23.5 °F 97% 29.58 in 7.0 mi SSW 4.6 mph - N/A   Overcast
3:55 AM 23.9 °F 16.8 °F 23.4 °F 98% 29.57 in 7.0 mi SW 5.8 mph - N/A   Overcast
4:15 AM 23.9 °F - 23.4 °F 98% 29.57 in 7.0 mi Calm Calm - N/A   Overcast
4:35 AM 23.5 °F 14.5 °F 23.0 °F 98% 29.57 in 7.0 mi SW 8.1 mph - N/A   Overcast
4:55 AM 23.5 °F - 23.0 °F 98% 29.56 in 7.0 mi Calm Calm - N/A   Overcast
5:15 AM 23.5 °F - 23.0 °F 98% 29.56 in 7.0 mi Calm Calm - N/A   Overcast
5:35 AM 23.4 °F - 22.8 °F 98% 29.55 in 7.0 mi Calm Calm - N/A   Overcast
5:55 AM 23.4 °F - 22.8 °F 98% 29.56 in 7.0 mi Calm Calm - N/A   Overcast
6:15 AM 23.0 °F - 22.5 °F 98% 29.55 in 5.0 mi Calm Calm - N/A   Overcast
6:35 AM 22.8 °F - 22.1 °F 97% 29.53 in 7.0 mi Calm Calm - N/A   Overcast
6:55 AM 22.5 °F - 22.1 °F 99% 29.53 in 7.0 mi Calm Calm - N/A   Overcast
7:15 AM 22.1 °F - 21.9 °F 99% 29.52 in 5.0 mi Calm Calm - N/A   Overcast
7:35 AM 22.1 °F - 21.9 °F 99% 29.52 in 5.0 mi Calm Calm - N/A   Overcast
7:55 AM 22.5 °F - 21.9 °F 98% 29.52 in 5.0 mi Calm Calm - N/A   Overcast
8:15 AM 22.8 °F - 22.1 °F 97% 29.52 in 5.0 mi Calm Calm - N/A   Overcast
8:35 AM 23.4 °F - 22.1 °F 95% 29.51 in 5.0 mi Calm Calm - N/A   Overcast
8:55 AM 23.9 °F 15.8 °F 22.6 °F 95% 29.51 in 7.0 mi South 6.9 mph - N/A   Overcast
9:15 AM 24.6 °F 16.7 °F 23.0 °F 94% 29.51 in 7.0 mi South 6.9 mph - N/A   Overcast
9:35 AM 25.3 °F - 23.0 °F 91% 29.48 in 7.0 mi Calm Calm - N/A   Overcast
9:55 AM 25.7 °F 17.1 °F 23.5 °F 92% 29.47 in 7.0 mi SSE 8.1 mph - N/A   Overcast
10:15 AM 26.6 °F 18.2 °F 23.5 °F 88% 29.45 in 10.0 mi SSE 8.1 mph - N/A   Overcast
10:35 AM 27.1 °F 17.5 °F 23.9 °F 88% 29.43 in 10.0 mi SSE 10.4 mph - N/A   Scattered Clouds
10:55 AM 28.0 °F 20.8 °F 24.1 °F 85% 29.43 in 10.0 mi South 6.9 mph - N/A   Clear
11:15 AM 28.6 °F - 24.6 °F 85% 29.43 in 10.0 mi Calm Calm - N/A   Clear
11:35 AM 30.0 °F 21.7 °F 25.2 °F 82% 29.41 in 10.0 mi South 9.2 mph - N/A   Scattered Clouds
11:55 AM 31.3 °F 21.6 °F 25.5 °F 79% 29.39 in 10.0 mi South 12.7 mph - N/A   Clear
12:15 PM 31.5 °F 22.9 °F 25.7 °F 79% 29.38 in 10.0 mi SSW 10.4 mph - N/A   Scattered Clouds
12:35 PM 32.5 °F 23.7 °F 25.3 °F 75% 29.39 in 10.0 mi SSW 11.5 mph 16.1 mph N/A   Scattered Clouds
12:55 PM 32.9 °F - 25.3 °F 74% 29.38 in 10.0 mi Calm Calm - N/A   Scattered Clouds
1:15 PM 32.9 °F - 25.2 °F 73% 29.37 in 10.0 mi Calm Calm - 0.01 in   Mostly Cloudy
1:35 PM 33.8 °F 25.3 °F 25.5 °F 72% 29.37 in 10.0 mi SSW 11.5 mph 20.7 mph 0.01 in   Scattered Clouds
1:55 PM 34.0 °F 26.0 °F 25.5 °F 71% 29.36 in 10.0 mi South 10.4 mph 17.3 mph 0.02 in   Scattered Clouds
2:15 PM 34.0 °F 28.0 °F 25.7 °F 72% 29.37 in 10.0 mi SSW 6.9 mph - N/A   Clear
2:35 PM 34.0 °F 28.0 °F 25.9 °F 72% 29.37 in 10.0 mi SSW 6.9 mph - 0.01 in   Clear
2:55 PM 34.0 °F 27.2 °F 26.1 °F 73% 29.38 in 10.0 mi SW 8.1 mph - 0.01 in   Clear
3:15 PM 33.8 °F 27.0 °F 26.2 °F 74% 29.38 in 10.0 mi SW 8.1 mph - N/A   Clear
3:35 PM 33.8 °F 26.4 °F 26.4 °F 74% 29.39 in 10.0 mi SW 9.2 mph - 0.01 in   Clear
3:55 PM 33.8 °F 27.0 °F 26.4 °F 74% 29.39 in 10.0 mi SW 8.1 mph - 0.01 in   Scattered Clouds
4:15 PM 33.3 °F 27.9 °F 26.6 °F 77% 29.39 in 10.0 mi SSW 5.8 mph - N/A   Scattered Clouds
4:35 PM 33.1 °F - 27.0 °F 78% 29.38 in 10.0 mi Calm Calm - N/A   Mostly Cloudy
4:55 PM 33.1 °F - 26.8 °F 78% 29.40 in 10.0 mi Calm Calm - N/A   Mostly Cloudy
5:15 PM 32.5 °F - 26.6 °F 79% 29.39 in 10.0 mi Calm Calm - N/A   Scattered Clouds
5:35 PM 32.2 °F - 26.6 °F 80% 29.38 in 10.0 mi Calm Calm - N/A   Mostly Cloudy
5:55 PM 32.0 °F - 26.6 °F 80% 29.39 in 10.0 mi Calm Calm - N/A   Scattered Clouds
6:15 PM 32.0 °F - 26.6 °F 80% 29.39 in 10.0 mi Calm Calm - N/A   Clear
6:35 PM 32.0 °F - 26.6 °F 80% 29.40 in 10.0 mi Calm Calm - N/A   Clear
6:55 PM 32.0 °F - 26.6 °F 80% 29.41 in 10.0 mi Calm Calm - N/A   Clear
7:15 PM 32.0 °F - 26.6 °F 80% 29.40 in 10.0 mi Calm Calm - N/A   Clear
7:35 PM 32.0 °F - 26.6 °F 80% 29.40 in 10.0 mi Calm Calm - N/A   Clear
7:55 PM 32.0 °F - 26.6 °F 80% 29.40 in 10.0 mi Calm Calm - N/A   Clear
8:15 PM 32.0 °F - 26.2 °F 79% 29.41 in 10.0 mi Calm Calm - N/A   Clear
8:35 PM 32.2 °F - 26.8 °F 80% 29.40 in 10.0 mi Calm Calm - N/A   Scattered Clouds
8:55 PM 32.0 °F - 26.6 °F 80% 29.40 in 10.0 mi Calm Calm - N/A   Clear
9:15 PM 32.0 °F - 27.0 °F 82% 29.41 in 10.0 mi Calm Calm - N/A   Clear
9:35 PM 31.6 °F - 26.6 °F 82% 29.42 in 10.0 mi Calm Calm - N/A   Clear
9:55 PM 32.0 °F - 27.1 °F 82% 29.43 in 10.0 mi Calm Calm - N/A   Clear
10:15 PM 32.0 °F - 27.0 °F 82% 29.42 in 10.0 mi Calm Calm - N/A   Clear
10:35 PM 32.0 °F - 27.0 °F 82% 29.41 in 10.0 mi Calm Calm - N/A   Clear
10:55 PM 30.6 °F - 26.2 °F 84% 29.41 in 10.0 mi Calm Calm - N/A   Clear
11:15 PM 30.0 °F - 28.2 °F 93% 29.41 in 10.0 mi Calm Calm - N/A   Clear
11:35 PM 31.1 °F - 27.3 °F 86% 29.41 in 10.0 mi Calm Calm - N/A   Clear
11:55 PM 31.1 °F - 27.0 °F 85% 29.41 in 10.0 mi Calm Calm - N/A   Clear